EHI
17 16 13 8 5 3 2 3 2 1 0 0 0 0 1 1 2 3 5 7 7 6 6 6 4 3 2 2 1 1 2 1 0 0 0 0 0 0 0 0 0 0 0
18 15 11 8 6 3 2 2 1 0 0 0 0 0 0 1 2 3 4 5 6 7 7 6 5 4 4 3 2 3 2 1 0 0 0 0 0 0 0 0 0 0 0
15 11 7 6 4 2 1 1 0 0 0 0 0 0 0 0 1 1 2 3 3 4 7 7 6 5 5 4 4 4 3 2 1 1 1 0 0 0 0 0 0 0 0
10 7 3 2 1 1 1 0 0 0 0 0 0 0 0 0 1 0 0 1 1 2 5 6 5 5 5 5 4 3 3 2 1 2 2 1 0 0 0 0 0 0 0
5 3 1 0 0 0 1 1 1 1 0 0 0 0 0 0 0 0 0 0 0 1 2 3 3 3 3 4 3 2 1 1 1 2 2 1 0 0 0 0 0 0 0
2 1 0 0 0 1 2 3 3 2 1 1 0 0 0 0 0 0 0 0 0 1 1 2 2 1 1 3 3 2 1 0 0 1 1 0 0 0 0 0 0 0 0
2 1 0 0 0 2 4 5 5 3 2 2 1 0 0 0 1 0 0 0 0 1 2 4 3 1 1 2 3 3 1 0 0 0 0 0 0 0 0 0 0 0 0
2 1 1 1 1 3 5 6 5 3 2 3 2 1 0 0 0 0 0 0 0 0 2 3 2 1 0 1 1 1 1 0 1 1 1 1 1 0 0 0 0 0 0
2 1 1 1 1 3 4 4 5 3 2 2 2 1 0 0 0 0 0 0 0 0 0 1 1 0 0 1 1 1 0 1 1 0 1 2 1 0 0 0 0 0 0
1 0 1 1 1 1 2 3 3 2 1 1 1 0 0 0 0 0 0 0 0 0 0 0 0 0 0 1 1 1 0 0 0 0 0 1 1 0 0 0 0 0 0
1 1 1 2 1 0 1 1 1 1 0 0 0 0 0 0 0 0 0 0 0 0 0 0 0 0 0 0 0 0 0 0 0 0 0 0 0 0 0 0 0 0 0
2 2 3 3 1 0 0 0 0 0 0 0 0 0 0 0 0 0 0 0 0 0 0 0 0 0 0 0 0 0 0 0 0 0 0 0 0 0 0 0 0 0 0
4 5 5 3 1 0 0 0 0 0 0 0 0 0 0 0 0 0 0 0 0 0 0 0 0 0 0 0 0 0 0 0 0 0 0 0 0 0 0 0 0 0 0
5 7 7 4 1 0 0 0 0 0 0 0 0 0 0 0 0 0 0 0 0 0 0 0 0 1 0 0 0 0 0 0 0 0 0 0 0 0 0 0 0 0 0
7 8 7 4 1 1 0 0 0 0 0 0 0 0 0 0 0 0 0 0 0 0 0 0 0 0 0 0 0 0 0 0 0 0 0 0 0 0 0 0 0 0 0
9 7 5 3 3 2 1 0 0 0 0 0 0 0 0 0 0 0 0 0 0 0 0 0 0 0 0 0 0 0 0 0 0 0 0 0 0 0 0 0 0 0 0
9 6 3 3 4 3 1 0 0 0 0 0 0 0 0 0 0 0 0 0 0 0 0 0 0 0 0 0 0 0 0 0 0 0 0 0 0 0 0 0 0 0 0
6 5 4 4 3 2 1 1 1 0 0 1 2 1 1 1 1 0 0 0 0 0 0 0 0 0 0 0 0 0 0 0 0 0 0 0 0 0 0 0 0 0 0
6 7 6 6 4 2 1 2 2 1 1 1 2 2 2 2 2 1 0 0 0 0 0 0 0 0 0 0 0 0 0 0 0 0 0 0 0 0 0 0 0 0 0
10 9 8 8 6 3 2 2 2 2 1 1 1 1 2 2 2 1 0 0 0 0 0 0 0 0 0 0 0 0 0 0 0 0 0 0 0 0 0 0 0 0 0
13 11 10 8 6 3 1 1 1 1 1 1 0 0 1 1 1 1 0 0 0 0 0 0 0 0 0 0 0 0 0 0 0 0 0 0 0 0 0 0 0 0 0
16 14 12 10 6 3 1 0 0 0 1 1 0 0 0 0 0 0 0 0 0 0 0 0 0 0 0 0 0 0 0 0 0 0 0 0 0 0 0 0 0 0 0
24 22 18 15 12 7 2 0 0 0 0 0 0 0 0 0 0 0 0 0 0 0 0 0 0 0 0 0 0 0 0 0 0 0 0 0 0 0 0 0 0 0 0
37 31 25 22 19 12 4 0 0 0 0 0 0 0 1 0 0 0 0 0 0 0 0 0 0 0 0 0 0 0 0 0 0 0 0 0 0 0 0 0 0 0 0
47 38 30 26 24 16 6 1 0 0 0 0 0 0 0 0 0 0 0 0 0 0 0 0 0 0 0 0 0 0 0 0 0 0 0 0 0 0 0 0 0 0 0
50 41 32 29 27 20 9 2 0 0 0 0 0 0 0 0 0 0 0 0 0 0 0 0 0 0 0 0 0 0 0 0 0 0 0 0 0 0 0 0 0 0 0
Wind_Speed
3 4 2 2 2 1 1 0 1 1 1 2 3 2 3 3 1 2 5 10 10 9 9 9 9 9 9 9 10 9 9 9 9 8 7 7 8 8 8 8 7 7 7
3 4 3 2 2 2 2 1 1 0 0 0 2 2 2 2 2 2 3 5 9 9 9 9 10 10 10 10 11 11 11 10 9 9 8 8 8 8 8 8 8 8 7
4 3 3 2 2 2 2 1 1 1 1 1 1 2 1 1 1 1 0 2 4 8 9 9 9 9 10 11 11 11 11 11 10 10 9 9 9 9 9 9 9 8 8
4 3 3 3 2 2 2 2 1 0 0 1 1 2 1 1 2 2 2 2 2 3 7 9 9 9 10 11 11 11 10 10 11 11 11 10 10 10 10 10 10 9 9
4 3 3 3 2 2 1 1 2 1 1 1 2 2 2 1 2 2 1 2 2 2 3 7 9 9 10 11 12 11 11 10 10 10 11 12 11 11 11 11 11 10 11
4 3 3 2 1 2 2 2 1 0 1 1 3 1 2 1 1 0 1 2 2 2 2 4 4 6 9 9 10 10 10 10 10 10 11 12 12 11 12 12 12 12 12
3 2 4 2 1 3 2 2 1 1 1 0 2 2 2 3 3 2 1 1 1 0 1 2 2 1 3 8 7 8 9 10 10 10 10 11 11 12 12 13 14 13 13
4 4 4 2 2 2 2 2 1 1 2 1 1 2 1 1 1 2 2 2 1 1 1 1 2 2 1 2 4 6 6 7 9 10 11 11 11 11 12 14 14 15 15
3 2 3 2 2 2 3 1 0 1 2 2 1 2 2 2 1 1 1 2 2 1 1 1 1 2 2 2 3 3 4 3 5 7 9 10 10 11 12 13 14 15 15
4 3 3 3 1 1 2 1 2 1 1 1 0 1 1 1 1 1 1 1 2 2 1 1 1 1 1 2 4 5 4 2 2 4 6 8 10 10 12 14 16 15 15
3 3 4 3 2 1 3 2 2 1 1 2 2 1 1 1 2 1 1 1 1 1 2 1 0 0 0 2 3 4 5 3 2 2 3 5 8 10 11 13 15 17 17
4 4 4 3 2 2 3 3 1 1 1 2 3 3 2 1 1 1 2 2 1 1 1 1 1 1 1 1 4 5 5 4 2 2 3 4 6 8 9 11 13 15 17
4 4 5 3 3 3 3 2 1 1 1 1 1 2 3 3 2 2 2 2 3 2 2 2 2 2 1 2 3 4 4 5 4 4 4 5 6 7 8 9 11 13 14
5 6 5 4 3 3 3 3 1 2 2 1 1 1 2 2 2 2 1 2 3 3 2 1 1 1 1 2 3 4 3 6 6 6 6 7 7 7 7 8 9 10 11
6 7 6 5 4 3 2 3 2 1 2 2 2 2 2 2 1 1 2 2 2 3 3 2 1 1 1 1 4 3 3 5 8 9 9 9 9 9 8 8 9 9 9
5 6 5 5 4 4 3 3 2 3 3 2 2 1 1 2 1 2 2 2 2 2 3 2 2 1 1 2 2 2 3 6 10 12 13 12 11 11 10 10 10 10 10
5 5 5 5 5 4 4 3 3 3 3 3 3 3 3 3 2 2 2 2 2 2 3 3 3 3 2 3 3 3 5 5 6 13 14 14 13 12 12 11 11 11 11
5 5 6 5 6 6 5 5 5 4 4 4 4 3 3 4 3 3 3 3 3 3 3 5 4 4 4 4 4 5 6 7 5 8 11 13 14 14 13 12 12 12 12
6 6 6 6 5 5 5 5 5 4 4 4 4 4 4 4 4 3 3 3 3 4 3 4 4 4 4 4 4 4 6 5 7 8 10 12 14 14 14 14 14 14 14
7 6 6 6 6 5 5 6 5 5 4 4 4 4 5 5 5 4 4 5 4 4 4 4 5 4 4 4 2 3 4 3 4 6 6 6 10 15 16 16 16 15 15
8 7 6 6 6 6 7 7 6 7 6 5 5 5 6 7 6 5 5 3 3 3 4 4 4 4 4 3 3 3 4 4 4 4 4 4 4 4 7 12 16 17 17
7 7 7 7 8 8 7 8 6 4 4 5 6 6 6 7 9 11 11 9 7 6 5 5 5 5 5 4 3 4 4 4 4 3 3 5 4 4 5 5 10 14 16
8 7 7 7 7 6 8 9 8 5 5 5 5 5 7 8 7 8 11 14 13 14 13 8 8 8 7 6 5 5 5 5 6 5 5 7 5 6 6 8 12 12 14
7 7 7 7 7 8 12 12 11 7 6 7 7 7 7 7 8 6 6 7 8 10 12 12 11 11 10 8 7 7 7 7 7 7 7 8 7 7 8 5 9 12 14
7 7 7 8 8 8 13 14 12 6 7 8 9 9 9 8 10 11 8 7 7 7 11 14 15 15 15 14 9 5 6 7 8 7 6 7 6 6 5 5 7 12 14
6 7 7 7 8 8 12 15 14 7 7 7 8 9 13 13 12 12 9 8 9 8 8 8 8 10 11 13 15 11 9 9 9 7 6 5 5 4 5 5 5 4 6
Wind_Direction
127 118 105 110 117 135 124 122 63 39 13 359 328 344 353 12 16 89 138 166 169 174 180 187 193 194 193 194 196 195 193 189 183 182 183 185 182 179 177 176 173 167 163
124 124 129 126 118 112 104 127 118 93 333 315 309 319 324 330 359 47 130 166 178 181 187 195 199 202 202 202 203 203 202 198 191 189 192 193 192 189 189 188 185 181 178
133 141 137 133 122 130 143 140 177 203 220 237 258 287 272 272 321 354 117 169 185 193 194 199 205 207 208 208 209 208 205 203 199 194 196 200 199 197 198 197 193 189 187
144 147 131 130 139 152 160 159 180 213 344 301 278 278 276 206 208 230 230 200 190 188 194 203 212 212 213 213 213 212 211 210 208 201 200 203 205 204 204 204 202 197 195
155 137 125 123 164 159 152 136 86 24 346 337 281 239 249 215 199 224 203 217 192 192 176 192 208 211 213 215 215 215 215 214 210 209 211 211 211 209 208 208 209 205 202
138 131 128 136 154 116 94 78 89 222 269 276 293 300 257 223 204 193 241 216 185 202 182 173 192 210 214 216 217 217 218 217 213 216 219 220 219 215 213 212 212 210 208
126 123 115 139 116 100 99 101 63 281 256 295 307 288 239 200 169 163 189 359 53 72 122 142 153 170 203 212 214 218 221 223 222 222 224 225 226 224 222 220 217 214 212
150 151 135 144 108 113 117 89 59 327 323 32 332 314 294 131 276 167 161 176 96 31 9 126 145 172 208 165 187 200 216 228 233 231 230 228 228 229 228 227 223 219 217
140 110 125 124 130 156 136 144 143 20 351 331 24 6 348 23 339 116 130 99 99 58 334 1 172 179 194 151 144 170 191 216 238 244 243 238 233 233 233 233 231 226 223
143 137 129 124 124 106 121 153 96 357 325 317 29 104 90 62 338 350 306 111 172 191 208 310 0 285 166 129 127 129 146 162 220 258 257 254 244 237 237 237 237 233 230
155 146 131 126 137 111 103 79 76 12 354 1 351 352 68 183 227 249 310 328 269 198 172 172 221 290 51 138 139 131 149 159 182 252 275 273 261 248 244 244 245 243 237
167 155 141 134 142 117 117 114 117 109 58 30 355 344 351 335 330 337 324 310 304 284 164 149 192 222 221 139 122 131 154 165 197 245 275 282 279 267 257 252 252 252 247
159 147 137 140 137 129 137 134 160 106 91 51 318 330 354 342 352 356 339 329 333 303 242 202 189 182 209 118 129 150 181 190 207 232 258 271 276 275 268 259 258 258 256
142 142 138 154 153 161 158 132 198 176 148 182 274 25 318 308 340 339 331 330 316 308 297 250 118 127 110 129 155 194 218 213 216 229 246 256 262 265 265 262 260 259 256
140 146 152 161 165 167 155 151 225 171 141 205 258 210 242 292 287 310 316 311 312 313 315 335 30 100 159 184 173 220 241 229 223 229 240 247 250 254 256 258 257 256 255
125 148 160 167 169 169 178 192 227 188 174 210 228 232 271 290 326 306 287 287 284 285 296 315 313 319 360 309 242 274 286 265 241 237 240 241 242 244 246 248 250 251 251
146 162 172 177 179 183 188 194 239 203 193 225 246 227 225 262 283 305 297 291 282 284 289 297 307 313 297 269 267 261 265 256 250 244 238 236 235 238 240 242 245 247 247
172 180 185 189 196 193 192 197 226 225 207 216 228 233 235 246 226 254 278 283 279 269 261 276 285 283 274 261 245 244 263 270 269 265 239 230 229 232 237 240 243 244 244
188 191 189 196 209 202 194 204 220 233 227 229 229 229 234 244 243 245 258 272 283 287 283 280 282 274 268 264 256 257 263 266 273 273 248 230 229 231 236 238 240 241 242
192 194 193 200 208 211 206 205 213 224 232 238 236 234 237 239 237 236 249 250 259 274 275 271 269 270 266 265 264 262 273 268 274 285 288 260 234 231 234 238 240 240 240
198 195 197 204 209 215 216 207 209 218 219 232 239 235 235 234 233 229 249 261 279 277 282 283 282 288 286 302 294 290 288 288 277 275 277 276 258 240 236 240 242 241 239
204 197 201 207 212 222 205 196 199 232 228 231 237 239 243 231 221 222 231 237 236 245 256 267 277 278 283 289 296 296 291 292 289 290 303 293 290 275 262 250 240 237 235
202 205 205 209 215 210 193 186 194 215 245 253 251 245 252 250 223 219 225 233 240 242 239 244 258 264 271 277 286 290 284 283 279 282 287 278 269 268 261 267 262 249 233
200 207 212 216 218 212 195 194 196 213 237 248 252 251 247 251 255 242 240 235 230 233 232 231 238 248 253 254 254 261 267 273 267 260 249 261 259 256 261 256 252 248 238
199 206 213 219 222 218 198 198 194 213 230 239 244 246 243 240 238 232 234 244 251 253 253 246 229 234 241 249 250 260 264 269 274 268 253 257 259 259 257 256 249 245 239
202 209 217 220 223 222 201 201 199 220 235 241 241 240 240 239 239 225 226 235 244 247 256 269 258 248 247 249 242 235 242 252 263 269 257 258 266 268 274 260 258 255 244